This is the latest recevied weather packets stored in our database for station/object KE8AFF-13. If no packets are shown the sender has not sent any weather packets the latest 10 day(s).
| Time | Temp. | Humidity | Pressure | Rain* | Wind** | Luminosity | Snow |
|---|---|---|---|---|---|---|---|
| 1778111326 | 11.11° C | 62% | 1012.7 hPa | 0 mm | - | 16 W/m² | - |
| 1778111025 | 11.11° C | 62% | 1013.1 hPa | 0 mm | - | 18 W/m² | - |
| 1778110722 | 11.11° C | 61% | 1012.9 hPa | 0 mm | - | 20 W/m² | - |
| 1778110418 | 11.11° C | 61% | 1012.7 hPa | 0 mm | - | 26 W/m² | - |
| 1778110116 | 11.11° C | 61% | 1013 hPa | 0 mm | - | 31 W/m² | - |
| 1778109811 | 11.67° C | 61% | 1013.1 hPa | 0 mm | - | 33 W/m² | - |
| 1778109507 | 11.67° C | 60% | 1012.7 hPa | 0 mm | - | 29 W/m² | - |
| 1778109205 | 11.67° C | 60% | 1013.5 hPa | 0 mm | - | 35 W/m² | - |
| 1778108902 | 11.67° C | 59% | 1013.6 hPa | 0 mm | - | 34 W/m² | - |
| 1778108599 | 11.67° C | 59% | 1013.2 hPa | 0 mm | - | 42 W/m² | - |
| 1778108295 | 11.67° C | 58% | 1013.1 hPa | 0 mm | - | 46 W/m² | - |
| 1778107993 | 11.67° C | 58% | 1013.2 hPa | 0 mm | - | 56 W/m² | - |
| 1778107689 | 11.67° C | 58% | 1013.1 hPa | 0 mm | - | 59 W/m² | - |
| 1778107387 | 12.22° C | 58% | 1013.1 hPa | 0 mm | - | 71 W/m² | - |
| 1778107083 | 12.22° C | 59% | 1012.8 hPa | 0 mm | - | 85 W/m² | - |
| 1778106777 | 12.22° C | 58% | 1012.7 hPa | 0 mm | - | 93 W/m² | - |
| 1778106475 | 12.22° C | 58% | 1013.1 hPa | 0 mm | - | 98 W/m² | - |
| 1778106170 | 12.22° C | 57% | 1013 hPa | 0 mm | - | 101 W/m² | - |
| 1778105869 | 12.22° C | 55% | 1013.1 hPa | 0 mm | - | 93 W/m² | - |
| 1778105566 | 12.22° C | 57% | 1013.1 hPa | 0 mm | - | 94 W/m² | - |
| 1778105263 | 12.22° C | 56% | 1013 hPa | 0 mm | - | 105 W/m² | - |
| 1778104958 | 12.22° C | 57% | 1013.1 hPa | 0 mm | - | 93 W/m² | - |
| 1778104655 | 12.22° C | 57% | 1013 hPa | 0 mm | - | 95 W/m² | - |
| 1778104350 | 12.22° C | 56% | 1012.5 hPa | 0 mm | - | 136 W/m² | - |
| 1778104042 | 12.22° C | 58% | 1012.5 hPa | 0 mm | - | 128 W/m² | - |
* Rain latest hour (hover to see other rain measurements)
** Current wind speed in m/s (hover to see current wind gust speed)